Content
SEND FEEDBACK

Daily
Averages
Monthly
Summary
United States of America

EARTH CITY, MISSOURI


Home > North America > United States > Missouri
Elevation: 476 feet     Latitude: 38 46N     Longitude: 090 30W

WEATHER
 
SELECT A DAY
Number of Records: 208,473;   Date Range: 1/1/95 - 12/25/14
 
SHARE

PRINT THIS DATA

[ ← Previous Day ]
WEATHER ALMANAC - JANUARY 6, 2013
[ Next Day → ]
[ °C ]   °F
Weather ElementAverageHighLow
Temperature32.9 °F41 °F (1:51 am)25 °F (11:51 pm)
Dewpoint22.3 °F30 °F (1:51 am)18 °F (11:51 pm)
Humidity65.6 %75 % (4:51 am)52 % (2:51 pm)
Barometer30.29 in30.43 in (11:51 pm)30.11 in (1:51 am)
Wind Speed10.8 mph20.7 mph (12:22 pm)
Wind Gust27.6 mph (9:51 am)
Weather ElementAverage
Visibility9.2 mi
Wind DirectionWSW (238.8 °)

Weather ElementTotal
Precipitation---
Heating Degree Days32 (Base 65)
Averaged from 25 records on January 6, 2013
WEATHER CONDITIONS BREAKOUT
WIND DIRECTION BREAKOUT
WEATHER BY HOUR - JANUARY 6, 2013
[ °C ]   °F
Local TimeTemperatureDewpointHumidityBarometerVisibilityWind DirectionWind SpeedGust SpeedPrecipitationEventsConditions
1:51 AM41.0 °F30.0 °F65 %30.11 in10.0 miWSW (250°)16.1 mph23.0 mphMostly Cloudy
2:51 AM39.0 °F28.9 °F67 %30.12 in10.0 miWest (270°)13.8 mphPartly Cloudy
3:51 AM37.0 °F28.0 °F70 %30.12 in10.0 miWest (280°)13.8 mphPartly Cloudy
4:51 AM34.0 °F27.0 °F75 %30.13 in10.0 miWest (280°)9.2 mphScattered Clouds
5:51 AM34.0 °F26.1 °F73 %30.16 in10.0 miWNW (290°)10.4 mphScattered Clouds
5:58 AM33.8 °F26.6 °F75 %30.14 in10.0 miWNW (290°)15.0 mph23.0 mphMostly Cloudy
6:51 AM33.1 °F23.0 °F66 %30.19 in10.0 miWNW (290°)18.4 mph24.2 mphOvercast
7:51 AM32.0 °F21.9 °F66 %30.22 in10.0 miWNW (300°)9.2 mph23.0 mphOvercast
8:51 AM33.1 °F21.9 °F64 %30.25 in10.0 miWNW (290°)19.6 mph24.2 mphOvercast
9:51 AM33.1 °F21.9 °F64 %30.28 in10.0 miWNW (300°)13.8 mph27.6 mphOvercast
10:51 AM33.1 °F21.9 °F64 %30.30 in7.0 miWNW (290°)17.3 mphOvercast
11:51 AM34.0 °F21.9 °F61 %30.30 in7.0 miWNW (290°)17.3 mph26.5 mphMostly Cloudy
12:22 PM35.6 °F21.2 °F56 %30.27 in6.0 miWNW (290°)20.7 mphHaze
12:51 PM35.1 °F21.9 °F59 %30.29 in6.0 miWNW (290°)13.8 mphHaze
1:51 PM36.0 °F21.9 °F57 %30.31 in7.0 miWNW (300°)15.0 mph23.0 mphPartly Cloudy
2:51 PM37.0 °F21.0 °F52 %30.33 in10.0 miNW (310°)11.5 mphPartly Cloudy
3:51 PM36.0 °F21.0 °F55 %30.35 in8.0 miWest (280°)12.7 mphPartly Cloudy
4:51 PM33.1 °F19.9 °F59 %30.37 in10.0 miWNW (290°)8.1 mphPartly Cloudy
5:51 PM30.0 °F19.0 °F64 %30.40 in10.0 miWNW (290°)5.8 mphClear
6:51 PM28.9 °F19.0 °F67 %30.41 in10.0 miWest (280°)4.6 mphClear
7:51 PM27.0 °F19.0 °F72 %30.41 in10.0 miCalmClear
8:51 PM28.9 °F19.0 °F67 %30.41 in10.0 miCalmClear
9:51 PM27.0 °F19.0 °F72 %30.41 in10.0 miCalmClear
10:51 PM26.1 °F19.0 °F75 %30.42 in10.0 miSW (220°)3.5 mphClear
11:51 PM25.0 °F18.0 °F75 %30.43 in10.0 miCalmClear
Hourly data recorded from KSTL, located miles away from Earth City, Missouri







STORIES FROM OUR PARTNERS